SCP
-0 -0 -0 -0 -0 -0 -0 -0 0 0 0 -0 -0 -0 -0 -0 -0 -0 -0 -0 -0 -0 -0 -0 -0 -0 -0 -0 -0 0 0 0 0 0 -0 -0 -0 0 0 0 -0 -0 -0
-0 -0 -0 -0 -0 -0 -0 -0 -0 -0 -0 -0 -0 0 -0 -0 -0 -0 -0 -0 -0 -0 -0 -0 -0 -0 -0 0 0 0 0 0 0 -0 -0 -0 -0 -0 0 0 0 0 0
-0 -0 -0 -0 -0 -0 -0 -0 -0 -0 -0 -0 0 -0 -0 -0 -0 -0 -0 -0 0 0 0 -0 -0 0 0 0 0 0 0 0 -0 -0 -0 -0 -0 -0 0 0 0 0 0
-0 -0 0 -0 -0 -0 -0 -0 -0 -0 -0 -0 0 -0 -0 -0 -0 -0 -0 -0 0 0 0 0 0 -0 0 0 0 0 0 0 -0 0 -0 -0 0 -0 0 0 0 0 0
-0 0 0 -0 -0 -0 -0 -0 -0 -0 -0 -0 0 0 -0 -0 -0 -0 -0 0 0 0 0 0 0 -0 0 0 0 0 0 0 0 0 0 0 0 0 0 0 0 0 0
-0 0 0 -0 -0 -0 -0 -0 -0 -0 -0 -0 0 -0 -0 -0 -0 0 0 0 0 -0 -0 -0 -0 -0 -0 0 -0 0 0 0 0 0 0 0 0 0 0 0 0 0 0
0 0 0 -0 -0 0 -0 -0 -0 -0 -0 -0 -0 0 0 -0 0 0 0 -0 -0 -0 -0 -0 -0 -0 0 0 0 0 0 0 0 0 0 0 0 0 0 0 0 0 0
0 0 0 0 0 0 0 -0 -0 -0 -0 -0 -0 0 0 0 0 0 0 -0 -0 -0 -0 -0 0 -0 -0 -0 -0 -0 0 0 0 0 0 0 0 0 0 0 0 0 0
0 0 0 0 0 0 0 -0 -0 -0 -0 -0 -0 0 0 0 0 0 -0 -0 -0 -0 0 0 -0 -0 -0 0 0 0 0 0 0 0 0 0 0 0 0 0 0 0 0
0 0 0 0 0 0 0 0 0 0 0 0 0 0 0 0 0 -0 -0 -0 -0 0 0 0 0 0 0 0 0 0 0 0 0 0 0 0 0 0 0 0 0 0 0
0 0 0 0 0 0 0 0 0 0 0 0 0 0 0 0 0 -0 -0 -0 -0 0 -0 -0 0 0 0 0 0 0 0 0 0 0 0 0 0 0 0 0 0 0 0
0 0 0 0 0 0 0 0 0 0 0 0 0 0 0 0 0 -0 -0 -0 -0 -0 -0 -0 0 0 0 0 0 0 0 0 0 0 0 0 0 0 0 0 0 0 0
0 0 0 0 0 0 0 0 0 0 0 0 0 0 0 0 0 0 0 0 -0 -0 0 0 0 0 0 0 0 0 0 0 0 0 0 0 0 0 0 0 0 0 0
0 0 0 0 0 0 0 0 0 0 0 0 0 0 0 0 0 0 0 0 0 0 0 0 0 0 0 0 0 0 0 0 0 0 0 0 0 0 0 0 0 0 0
0 0 0 0 0 0 0 0 0 0 0 0 0 0 0 0 0 0 0 0 0 0 0 0 0 0 0 0 0 0 0 0 0 0 0 0 0 0 0 0 0 0 0
0 0 0 0 0 0 0 0 0 0 0 0 0 0 0 0 0 0 0 0 0 0 0 0 0 0 0 0 0 0 0 0 0 0 0 0 0 0 0 0 0 0 0
0 0 0 0 0 0 0 0 0 0 0 0 0 0 0 0 0 0 0 0 0 0 0 0 0 0 0 0 0 0 0 0 0 0 0 0 0 0 0 0 0 0 0
0 0 0 0 0 0 0 0 0 0 0 0 0 0 0 0 0 0 0 0 0 0 0 0 0 0 0 0 0 0 0 0 0 0 0 0 0 0 0 0 0 0 0
0 0 0 0 0 0 0 0 0 0 0 0 0 0 0 0 0 0 0 0 0 0 0 0 0 0 0 0 0 0 0 0 0 0 0 0 0 0 0 0 0 0 0
0 0 0 0 0 0 0 0 0 0 0 0 0 0 0 0 0 0 0 0 0 0 0 0 0 0 0 0 0 0 0 0 0 0 0 0 0 0 0 0 0 0 0
0 0 0 0 0 0 0 0 0 0 0 0 0 0 0 0 0 0 0 0 0 0 0 0 0 0 0 0 0 0 0 0 0 0 0 0 0 0 0 0 0 0 0
0 0 0 0 0 0 0 0 0 0 0 0 0 0 0 0 0 0 0 0 0 0 0 0 0 0 0 0 0 0 0 0 0 0 0 0 0 0 0 0 0 0 0
0 0 0 0 0 0 0 0 0 0 0 0 0 0 0 0 0 0 0 0 0 0 0 0 0 0 0 0 0 0 0 0 0 0 0 0 0 0 0 0 0 0 0
0 0 0 0 0 0 0 0 0 0 0 0 0 0 0 0 0 0 0 0 0 0 0 0 0 0 0 0 0 0 0 0 0 0 0 0 0 0 0 0 0 0 0
0 0 0 0 0 0 0 0 0 0 0 0 0 0 0 0 0 0 0 0 0 0 0 0 0 0 0 0 0 0 0 0 0 0 0 0 0 0 0 0 0 0 0
0 0 0 0 0 0 0 0 0 0 0 0 0 0 0 0 0 0 0 0 0 0 0 0 0 0 0 0 0 0 0 0 0 0 0 0 0 0 0 0 0 0 0
Wind_Speed_500mb
53 48 44 39 39 40 35 27 24 20 18 15 16 19 27 29 30 29 31 33 32 31 29 28 27 26 26 24 23 23 24 24 24 24 24 26 28 30 31 31 31 31 31
58 51 45 41 43 43 37 28 25 20 18 15 18 21 23 26 28 29 31 31 30 29 28 27 25 24 23 23 23 24 23 24 24 23 23 23 26 30 32 33 32 32 31
56 52 44 41 44 44 36 31 24 20 18 17 18 21 26 28 28 29 30 30 29 28 26 24 22 22 22 23 23 23 21 20 20 20 19 19 23 27 31 35 35 32 31
56 53 45 43 46 45 39 33 26 21 18 18 19 23 27 28 28 28 29 28 27 25 23 21 21 21 21 21 20 20 19 17 15 18 17 18 19 22 26 32 34 33 30
57 51 45 45 47 45 39 35 27 21 19 18 20 24 27 28 28 28 28 26 24 22 21 20 20 19 18 18 18 18 18 16 15 17 19 22 22 24 23 29 27 35 30
56 49 45 47 47 44 39 36 30 22 19 17 16 22 27 28 28 26 25 23 22 21 20 19 18 16 15 15 15 16 14 15 17 19 23 24 23 24 23 27 32 38 32
57 49 47 46 47 45 39 36 33 27 17 14 17 21 26 28 27 25 23 21 21 19 18 16 14 13 12 12 13 14 13 14 17 22 24 24 24 24 22 25 39 37 32
55 50 49 45 45 44 40 40 37 24 14 12 18 24 27 27 25 23 21 20 19 17 14 12 10 10 10 12 12 11 11 11 18 19 18 21 22 21 22 34 36 29 25
51 49 49 46 46 44 42 43 36 23 14 13 22 27 28 27 24 22 20 19 16 12 9 8 8 9 11 11 11 11 14 17 15 13 12 17 16 21 26 29 22 23 23
51 48 50 49 48 47 45 41 33 23 16 18 25 28 28 25 23 20 18 15 12 9 7 8 9 9 13 13 13 13 12 9 13 13 10 13 18 18 20 16 15 15 16
55 51 52 51 50 48 46 40 31 23 20 24 29 29 27 24 21 18 16 12 9 6 5 6 12 17 12 21 14 14 13 13 14 12 12 14 16 18 18 17 17 19 21
63 58 55 54 53 50 45 38 32 26 24 29 31 30 26 23 20 17 13 10 5 1 8 8 12 23 20 20 17 16 14 12 11 10 12 14 15 19 20 18 22 21 26
70 64 60 58 55 50 45 39 33 28 29 33 33 29 26 22 20 16 11 7 3 3 6 10 14 20 21 16 16 14 14 12 13 13 9 6 6 20 11 23 22 27 25
75 70 63 61 58 51 43 37 32 31 34 34 32 28 24 22 19 15 11 5 1 5 9 12 17 20 19 15 14 13 12 12 13 10 7 6 7 10 17 23 26 28 23
74 70 66 63 60 53 46 40 35 35 36 35 31 27 24 22 20 14 9 5 7 10 14 16 18 17 15 13 12 11 11 9 9 9 7 5 8 12 18 25 26 28 21
68 68 66 64 57 52 48 42 37 37 38 34 31 27 25 21 16 12 9 9 11 15 18 19 16 14 12 10 11 10 10 10 10 8 6 8 11 14 18 22 28 20 12
64 63 67 64 57 52 46 42 40 38 38 33 32 29 27 21 18 14 13 12 14 16 18 15 12 11 11 11 11 9 8 10 11 9 8 9 13 16 18 17 10 11 12
62 65 65 64 58 51 46 44 43 40 39 36 30 26 24 20 17 17 16 14 16 17 14 11 9 9 10 10 8 5 7 10 10 8 7 11 16 21 23 22 19 20 24
65 64 68 66 61 54 45 41 41 42 38 36 32 29 24 20 19 18 18 17 17 15 11 8 7 6 8 8 5 5 8 10 8 6 9 13 19 22 24 25 26 25 22
66 65 65 64 60 56 53 48 44 41 41 38 37 31 28 24 21 20 17 16 15 11 8 8 7 7 7 4 4 7 10 8 7 9 12 17 20 21 21 21 20 20 23
70 68 69 66 64 64 60 59 55 47 45 41 38 34 29 25 20 20 18 15 13 9 7 8 9 8 5 2 7 9 11 11 11 11 14 18 20 20 20 18 20 23 29
77 71 68 69 67 65 59 58 55 51 48 43 37 35 30 24 21 21 17 13 11 8 7 8 9 8 4 4 10 15 11 15 18 17 17 18 20 21 20 21 24 30 34
84 78 73 74 70 66 66 65 55 51 51 47 42 35 28 24 22 20 17 14 11 8 5 5 6 7 9 8 7 6 9 10 10 16 12 14 21 23 25 25 27 33 35
87 79 75 76 78 72 68 65 62 55 54 46 39 33 29 27 26 23 19 16 12 7 4 4 8 9 10 13 15 15 12 11 6 7 12 13 21 22 24 23 30 37 38
82 79 84 83 80 78 70 66 60 57 57 46 43 36 28 31 29 24 21 17 11 6 4 9 9 11 10 11 12 13 13 12 11 8 8 10 18 20 26 24 33 33 48
76 71 69 81 83 82 70 66 59 57 54 55 47 39 38 35 30 27 21 14 8 7 9 10 10 7 11 12 12 12 12 10 11 9 12 19 20 22 26 33 39 41 51
Wind_Direction_500mb
176 173 167 165 164 163 158 155 148 136 117 116 129 129 127 126 119 119 113 107 103 101 98 94 88 83 77 69 68 66 65 63 62 59 61 57 53 51 42 36 30 26 22
170 170 169 166 163 160 159 158 155 138 117 113 124 125 128 125 118 115 110 108 105 99 95 91 86 80 74 69 65 63 59 59 57 54 54 50 47 48 39 32 27 23 20
171 168 169 168 164 163 162 165 158 136 121 113 124 129 123 120 117 114 113 111 107 102 96 91 85 79 75 71 64 60 57 55 54 50 45 41 40 39 34 28 23 19 17
169 168 170 170 167 167 167 168 160 140 126 117 123 126 127 123 121 120 117 114 108 102 94 87 82 78 75 69 62 54 48 46 45 37 31 30 26 23 31 15 12 9 3
169 168 170 171 170 170 168 169 163 152 139 123 126 129 128 128 126 123 122 116 106 98 90 83 80 75 69 63 54 41 34 39 36 23 23 22 22 20 23 5 359 358 351
168 168 171 171 171 172 171 169 169 163 142 114 120 125 128 129 129 126 114 106 100 93 88 83 75 66 58 50 42 34 42 36 26 30 28 22 18 6 8 352 351 348 348
168 168 169 172 175 174 173 171 168 152 130 119 129 134 134 130 129 122 114 107 98 92 86 79 70 60 56 44 32 33 38 32 31 25 20 7 6 355 2 349 349 354 7
170 168 169 171 176 177 174 174 168 159 145 134 141 141 140 137 131 124 116 107 99 91 84 76 64 58 43 26 18 16 17 14 27 18 13 9 355 349 351 351 2 21 25
174 172 170 172 174 175 174 173 173 174 165 159 154 148 143 139 134 125 116 107 102 102 97 77 61 39 20 12 6 12 11 9 2 344 2 9 347 347 2 7 18 32 38
178 177 174 173 175 174 172 175 179 183 179 173 163 155 149 143 135 127 122 118 120 121 83 61 33 0 351 341 342 339 338 335 341 346 348 8 337 356 358 20 35 22 16
183 181 178 176 175 175 174 176 182 186 186 175 167 160 154 147 140 136 132 131 121 91 54 359 12 359 353 349 357 348 345 336 342 346 344 342 338 348 38 37 34 15 17
185 183 183 179 178 178 178 181 185 191 186 176 169 164 158 154 151 146 144 140 136 31 23 1 354 338 347 341 350 1 3 4 359 351 347 353 348 48 50 46 5 27 31
189 187 187 184 183 183 184 187 190 192 185 178 172 167 166 162 159 159 157 146 61 8 337 329 320 329 336 335 335 336 336 327 316 322 343 359 19 69 49 25 27 25 44
192 193 190 190 190 189 191 194 196 191 184 180 177 176 174 172 173 171 173 153 271 317 324 317 318 323 327 321 320 317 313 303 308 322 341 343 342 16 25 16 19 37 45
194 196 195 193 195 194 194 194 193 187 183 181 183 181 180 179 184 174 177 193 268 287 302 314 316 317 315 318 319 319 312 304 298 310 323 324 335 356 7 11 32 50 59
198 200 195 192 191 194 194 191 187 184 186 189 188 188 185 188 183 189 202 229 267 291 303 310 311 307 309 316 317 305 294 282 277 280 299 319 334 343 354 6 52 70 52
204 203 196 190 191 192 191 186 185 186 189 191 191 191 191 188 197 200 226 246 276 292 299 301 302 305 313 316 312 301 275 259 258 272 297 318 330 336 344 348 59 76 54
207 200 192 191 190 185 184 184 184 187 188 186 188 194 192 198 207 222 231 255 280 291 287 288 292 296 310 317 312 281 244 223 237 254 286 312 322 330 334 333 325 312 317
204 196 191 190 186 180 174 176 184 185 185 188 189 197 200 215 223 225 240 264 281 280 276 271 280 299 313 307 281 200 196 201 228 257 300 319 327 330 333 330 326 328 337
202 197 192 190 189 186 185 190 191 186 191 192 199 200 208 223 236 241 257 266 272 263 261 271 287 307 319 294 190 192 195 215 248 284 316 331 335 336 338 338 338 340 342
202 198 196 192 190 190 188 192 199 193 197 195 203 209 218 233 246 246 252 257 250 240 252 267 289 324 345 207 203 196 203 226 257 291 315 327 338 345 345 341 337 336 338
203 201 198 196 195 195 199 198 199 197 202 205 207 215 223 240 242 251 251 240 228 228 251 285 308 308 315 229 258 239 236 250 258 282 305 324 342 345 338 334 335 335 335
206 204 201 199 200 198 200 199 200 200 205 207 212 219 230 242 237 240 234 218 214 223 250 280 287 294 309 320 326 269 242 239 240 264 288 327 343 335 333 333 334 338 338
209 210 207 205 204 205 205 208 210 211 208 213 221 229 234 236 230 221 211 206 211 218 222 287 303 307 312 312 312 308 302 284 251 245 267 294 327 324 329 327 331 335 340
209 212 212 210 210 208 211 212 216 214 220 218 222 225 233 233 219 207 198 196 194 197 305 300 302 306 311 318 313 307 308 309 299 284 274 293 321 320 333 331 336 339 339
208 210 207 209 211 208 211 212 219 213 218 223 217 219 225 213 206 195 191 184 186 291 296 296 289 319 342 332 322 315 312 310 309 318 312 317 329 332 336 337 338 335 338
Wind_Speed_850mb
53 48 44 39 39 40 35 27 24 20 18 15 16 19 27 29 30 29 31 33 32 31 29 28 27 26 26 24 23 23 24 24 24 24 24 26 28 30 31 31 31 31 31
58 51 45 41 43 43 37 28 25 20 18 15 18 21 23 26 28 29 31 31 30 29 28 27 25 24 23 23 23 24 23 24 24 23 23 23 26 30 32 33 32 32 31
56 52 44 41 44 44 36 31 24 20 18 17 18 21 26 28 28 29 30 30 29 28 26 24 22 22 22 23 23 23 21 20 20 20 19 19 23 27 31 35 35 32 31
56 53 45 43 46 45 39 33 26 21 18 18 19 23 27 28 28 28 29 28 27 25 23 21 21 21 21 21 20 20 19 17 15 18 17 18 19 22 26 32 34 33 30
57 51 45 45 47 45 39 35 27 21 19 18 20 24 27 28 28 28 28 26 24 22 21 20 20 19 18 18 18 18 18 16 15 17 19 22 22 24 23 29 27 35 30
56 49 45 47 47 44 39 36 30 22 19 17 16 22 27 28 28 26 25 23 22 21 20 19 18 16 15 15 15 16 14 15 17 19 23 24 23 24 23 27 32 38 32
57 49 47 46 47 45 39 36 33 27 17 14 17 21 26 28 27 25 23 21 21 19 18 16 14 13 12 12 13 14 13 14 17 22 24 24 24 24 22 25 39 37 32
55 50 49 45 45 44 40 40 37 24 14 12 18 24 27 27 25 23 21 20 19 17 14 12 10 10 10 12 12 11 11 11 18 19 18 21 22 21 22 34 36 29 25
51 49 49 46 46 44 42 43 36 23 14 13 22 27 28 27 24 22 20 19 16 12 9 8 8 9 11 11 11 11 14 17 15 13 12 17 16 21 26 29 22 23 23
51 48 50 49 48 47 45 41 33 23 16 18 25 28 28 25 23 20 18 15 12 9 7 8 9 9 13 13 13 13 12 9 13 13 10 13 18 18 20 16 15 15 16
55 51 52 51 50 48 46 40 31 23 20 24 29 29 27 24 21 18 16 12 9 6 5 6 12 17 12 21 14 14 13 13 14 12 12 14 16 18 18 17 17 19 21
63 58 55 54 53 50 45 38 32 26 24 29 31 30 26 23 20 17 13 10 5 1 8 8 12 23 20 20 17 16 14 12 11 10 12 14 15 19 20 18 22 21 26
70 64 60 58 55 50 45 39 33 28 29 33 33 29 26 22 20 16 11 7 3 3 6 10 14 20 21 16 16 14 14 12 13 13 9 6 6 20 11 23 22 27 25
75 70 63 61 58 51 43 37 32 31 34 34 32 28 24 22 19 15 11 5 1 5 9 12 17 20 19 15 14 13 12 12 13 10 7 6 7 10 17 23 26 28 23
74 70 66 63 60 53 46 40 35 35 36 35 31 27 24 22 20 14 9 5 7 10 14 16 18 17 15 13 12 11 11 9 9 9 7 5 8 12 18 25 26 28 21
68 68 66 64 57 52 48 42 37 37 38 34 31 27 25 21 16 12 9 9 11 15 18 19 16 14 12 10 11 10 10 10 10 8 6 8 11 14 18 22 28 20 12
64 63 67 64 57 52 46 42 40 38 38 33 32 29 27 21 18 14 13 12 14 16 18 15 12 11 11 11 11 9 8 10 11 9 8 9 13 16 18 17 10 11 12
62 65 65 64 58 51 46 44 43 40 39 36 30 26 24 20 17 17 16 14 16 17 14 11 9 9 10 10 8 5 7 10 10 8 7 11 16 21 23 22 19 20 24
65 64 68 66 61 54 45 41 41 42 38 36 32 29 24 20 19 18 18 17 17 15 11 8 7 6 8 8 5 5 8 10 8 6 9 13 19 22 24 25 26 25 22
66 65 65 64 60 56 53 48 44 41 41 38 37 31 28 24 21 20 17 16 15 11 8 8 7 7 7 4 4 7 10 8 7 9 12 17 20 21 21 21 20 20 23
70 68 69 66 64 64 60 59 55 47 45 41 38 34 29 25 20 20 18 15 13 9 7 8 9 8 5 2 7 9 11 11 11 11 14 18 20 20 20 18 20 23 29
77 71 68 69 67 65 59 58 55 51 48 43 37 35 30 24 21 21 17 13 11 8 7 8 9 8 4 4 10 15 11 15 18 17 17 18 20 21 20 21 24 30 34
84 78 73 74 70 66 66 65 55 51 51 47 42 35 28 24 22 20 17 14 11 8 5 5 6 7 9 8 7 6 9 10 10 16 12 14 21 23 25 25 27 33 35
87 79 75 76 78 72 68 65 62 55 54 46 39 33 29 27 26 23 19 16 12 7 4 4 8 9 10 13 15 15 12 11 6 7 12 13 21 22 24 23 30 37 38
82 79 84 83 80 78 70 66 60 57 57 46 43 36 28 31 29 24 21 17 11 6 4 9 9 11 10 11 12 13 13 12 11 8 8 10 18 20 26 24 33 33 48
76 71 69 81 83 82 70 66 59 57 54 55 47 39 38 35 30 27 21 14 8 7 9 10 10 7 11 12 12 12 12 10 11 9 12 19 20 22 26 33 39 41 51
Wind_Direction_850mb
176 173 167 165 164 163 158 155 148 136 117 116 129 129 127 126 119 119 113 107 103 101 98 94 88 83 77 69 68 66 65 63 62 59 61 57 53 51 42 36 30 26 22
170 170 169 166 163 160 159 158 155 138 117 113 124 125 128 125 118 115 110 108 105 99 95 91 86 80 74 69 65 63 59 59 57 54 54 50 47 48 39 32 27 23 20
171 168 169 168 164 163 162 165 158 136 121 113 124 129 123 120 117 114 113 111 107 102 96 91 85 79 75 71 64 60 57 55 54 50 45 41 40 39 34 28 23 19 17
169 168 170 170 167 167 167 168 160 140 126 117 123 126 127 123 121 120 117 114 108 102 94 87 82 78 75 69 62 54 48 46 45 37 31 30 26 23 31 15 12 9 3
169 168 170 171 170 170 168 169 163 152 139 123 126 129 128 128 126 123 122 116 106 98 90 83 80 75 69 63 54 41 34 39 36 23 23 22 22 20 23 5 359 358 351
168 168 171 171 171 172 171 169 169 163 142 114 120 125 128 129 129 126 114 106 100 93 88 83 75 66 58 50 42 34 42 36 26 30 28 22 18 6 8 352 351 348 348
168 168 169 172 175 174 173 171 168 152 130 119 129 134 134 130 129 122 114 107 98 92 86 79 70 60 56 44 32 33 38 32 31 25 20 7 6 355 2 349 349 354 7
170 168 169 171 176 177 174 174 168 159 145 134 141 141 140 137 131 124 116 107 99 91 84 76 64 58 43 26 18 16 17 14 27 18 13 9 355 349 351 351 2 21 25
174 172 170 172 174 175 174 173 173 174 165 159 154 148 143 139 134 125 116 107 102 102 97 77 61 39 20 12 6 12 11 9 2 344 2 9 347 347 2 7 18 32 38
178 177 174 173 175 174 172 175 179 183 179 173 163 155 149 143 135 127 122 118 120 121 83 61 33 0 351 341 342 339 338 335 341 346 348 8 337 356 358 20 35 22 16
183 181 178 176 175 175 174 176 182 186 186 175 167 160 154 147 140 136 132 131 121 91 54 359 12 359 353 349 357 348 345 336 342 346 344 342 338 348 38 37 34 15 17
185 183 183 179 178 178 178 181 185 191 186 176 169 164 158 154 151 146 144 140 136 31 23 1 354 338 347 341 350 1 3 4 359 351 347 353 348 48 50 46 5 27 31
189 187 187 184 183 183 184 187 190 192 185 178 172 167 166 162 159 159 157 146 61 8 337 329 320 329 336 335 335 336 336 327 316 322 343 359 19 69 49 25 27 25 44
192 193 190 190 190 189 191 194 196 191 184 180 177 176 174 172 173 171 173 153 271 317 324 317 318 323 327 321 320 317 313 303 308 322 341 343 342 16 25 16 19 37 45
194 196 195 193 195 194 194 194 193 187 183 181 183 181 180 179 184 174 177 193 268 287 302 314 316 317 315 318 319 319 312 304 298 310 323 324 335 356 7 11 32 50 59
198 200 195 192 191 194 194 191 187 184 186 189 188 188 185 188 183 189 202 229 267 291 303 310 311 307 309 316 317 305 294 282 277 280 299 319 334 343 354 6 52 70 52
204 203 196 190 191 192 191 186 185 186 189 191 191 191 191 188 197 200 226 246 276 292 299 301 302 305 313 316 312 301 275 259 258 272 297 318 330 336 344 348 59 76 54
207 200 192 191 190 185 184 184 184 187 188 186 188 194 192 198 207 222 231 255 280 291 287 288 292 296 310 317 312 281 244 223 237 254 286 312 322 330 334 333 325 312 317
204 196 191 190 186 180 174 176 184 185 185 188 189 197 200 215 223 225 240 264 281 280 276 271 280 299 313 307 281 200 196 201 228 257 300 319 327 330 333 330 326 328 337
202 197 192 190 189 186 185 190 191 186 191 192 199 200 208 223 236 241 257 266 272 263 261 271 287 307 319 294 190 192 195 215 248 284 316 331 335 336 338 338 338 340 342
202 198 196 192 190 190 188 192 199 193 197 195 203 209 218 233 246 246 252 257 250 240 252 267 289 324 345 207 203 196 203 226 257 291 315 327 338 345 345 341 337 336 338
203 201 198 196 195 195 199 198 199 197 202 205 207 215 223 240 242 251 251 240 228 228 251 285 308 308 315 229 258 239 236 250 258 282 305 324 342 345 338 334 335 335 335
206 204 201 199 200 198 200 199 200 200 205 207 212 219 230 242 237 240 234 218 214 223 250 280 287 294 309 320 326 269 242 239 240 264 288 327 343 335 333 333 334 338 338
209 210 207 205 204 205 205 208 210 211 208 213 221 229 234 236 230 221 211 206 211 218 222 287 303 307 312 312 312 308 302 284 251 245 267 294 327 324 329 327 331 335 340
209 212 212 210 210 208 211 212 216 214 220 218 222 225 233 233 219 207 198 196 194 197 305 300 302 306 311 318 313 307 308 309 299 284 274 293 321 320 333 331 336 339 339
208 210 207 209 211 208 211 212 219 213 218 223 217 219 225 213 206 195 191 184 186 291 296 296 289 319 342 332 322 315 312 310 309 318 312 317 329 332 336 337 338 335 338